GSAT0101 (GALILEO-PFM) 1 37846U 11060A 26256.42276860 -.00000104 00000+0 00000+0 0 9996 2 37846 56.9585 339.3688 0000206 39.1436 320.9088 1.70475689 92628 GSAT0102 (GALILEO-FM2) 1 37847U 11060B 26256.41161057 -.00000104 00000+0 00000+0 0 9997 2 37847 56.9593 339.3696 0002149 310.7269 88.1824 1.70475897 92630 GSAT0103 (GALILEO-FM3) 1 38857U 12055A 26254.70411982 .00000015 00000+0 00000+0 0 9999 2 38857 55.8600 99.1697 0002046 315.2788 44.7968 1.70473471 86482 GSAT0201 (GALILEO 5) 1 40128U 14050A 26255.19351444 -.00000034 00000+0 00000+0 0 9992 2 40128 48.7843 269.8594 1686336 182.7547 176.1917 1.85519597 79931 GSAT0202 (GALILEO 6) 1 40129U 14050B 26255.98772564 -.00000033 00000+0 00000+0 0 9999 2 40129 48.8006 268.9133 1687937 183.4937 175.1655 1.85520309 82117 GSAT0203 (GALILEO 7) 1 40544U 15017A 26252.09412080 -.00000100 00000+0 00000+0 0 9992 2 40544 56.7527 339.3092 0004460 251.6359 108.3566 1.70476378 70633 GSAT0204 (GALILEO 8) 1 40545U 15017B 26255.28309888 -.00000103 00000+0 00000+0 0 9991 2 40545 56.7579 339.2411 0004481 238.7983 121.2069 1.70475953 33737 GSAT0206 (GALILEO 10) 1 40890U 15045B 26256.44478083 .00000007 00000+0 00000+0 0 9990 2 40890 54.9249 219.1683 0002560 350.6337 9.3134 1.70473171 68540 GSAT0209 (GALILEO 12) 1 41174U 15079A 26256.02688537 .00000009 00000+0 00000+0 0 9996 2 41174 55.8815 98.8505 0004005 16.8346 343.2637 1.70473946 66273 GSAT0208 (GALILEO 11) 1 41175U 15079B 26253.90103923 .00000018 00000+0 00000+0 0 9992 2 41175 55.8790 98.9063 0005170 45.8921 314.2454 1.70473654 66654 GSAT0211 (GALILEO 14) 1 41549U 16030A 26255.78392084 .00000004 00000+0 00000+0 0 9996 2 41549 55.0758 219.2865 0003780 333.2275 26.7021 1.70473152 64166 GSAT0210 (GALILEO 13) 1 41550U 16030B 26256.04104468 .00000005 00000+0 00000+0 0 9996 2 41550 55.0748 219.2776 0003994 253.9864 105.9198 1.70473626 64168 GSAT0207 (GALILEO 15) 1 41859U 16069A 26254.56034714 .00000015 00000+0 00000+0 0 9992 2 41859 55.5533 98.6945 0003037 359.7632 0.3287 1.70473750 60879 GSAT0212 (GALILEO 16) 1 41860U 16069B 26256.17342759 .00000007 00000+0 00000+0 0 9995 2 41860 55.5523 98.6448 0003937 40.2377 319.8752 1.70474017 61159 GSAT0213 (GALILEO 17) 1 41861U 16069C 26256.54044431 .00000006 00000+0 00000+0 0 9992 2 41861 55.5558 98.6428 0002108 331.5488 28.5214 1.70474313 61026 GSAT0214 (GALILEO 18) 1 41862U 16069D 26256.68684208 .00000005 00000+0 00000+0 0 9999 2 41862 55.5522 98.6313 0001811 359.9534 0.1275 1.70474059 61151 GSAT0215 (GALILEO 19) 1 43055U 17079A 26254.24294115 -.00000002 00000+0 00000+0 0 9999 2 43055 55.0541 219.1395 0003346 281.3163 78.5923 1.70473895 54455 GSAT0216 (GALILEO 20) 1 43056U 17079B 26255.12062649 .00000001 00000+0 00000+0 0 9991 2 43056 55.0543 219.1155 0004601 288.9454 70.9518 1.70474013 54485 GSAT0217 (GALILEO 21) 1 43057U 17079C 26256.51462865 .00000007 00000+0 00000+0 0 9996 2 43057 55.0518 219.0748 0004026 303.7041 56.2098 1.70474003 54494 GSAT0218 (GALILEO 22) 1 43058U 17079D 26256.14811936 .00000005 00000+0 00000+0 0 9991 2 43058 55.0523 219.0826 0005017 284.7364 75.1586 1.70474001 54518 GSAT0221 (GALILEO 25) 1 43564U 18060A 26253.11958899 -.00000101 00000+0 00000+0 0 9996 2 43564 57.1351 339.4875 0004384 269.9725 90.0208 1.70476218 50611 GSAT0222 (GALILEO 26) 1 43565U 18060B 26256.27229508 -.00000103 00000+0 00000+0 0 9997 2 43565 57.1374 339.4061 0004857 243.5056 116.4954 1.70476060 50711 GSAT0219 (GALILEO 23) 1 43566U 18060C 26255.90648811 -.00000103 00000+0 00000+0 0 9999 2 43566 57.1370 339.4175 0003715 268.6913 91.3164 1.70476115 50687 GSAT0220 (GALILEO 24) 1 43567U 18060D 26253.19462196 -.00000101 00000+0 00000+0 0 9997 2 43567 57.1370 339.4905 0003677 268.4040 91.5976 1.70475942 50629 GSAT0223 (GALILEO 27) 1 49809U 21116A 26251.38578007 -.00000099 00000+0 00000+0 0 9992 2 49809 57.1270 339.4281 0003955 220.3982 200.3753 1.70476049 29607 GSAT0224 (GALILEO 28) 1 49810U 21116B 26256.38551262 -.00000103 00000+0 00000+0 0 9999 2 49810 57.1257 339.2916 0003205 217.6428 144.2305 1.70476441 29716 GSAT0225 (GALILEO 29) 1 59598U 24079A 26254.92947344 .00000012 00000+0 00000+0 0 9990 2 59598 55.1754 98.6543 0001345 119.7816 61.6279 1.70474149 14795 GSAT0227 (GALILEO 30) 1 59600U 24079C 26255.40408260 .00000010 00000+0 00000+0 0 9995 2 59600 55.1710 98.6393 0004161 92.6838 267.4517 1.70474167 14854 GSAT0232 (GALILEO 32) 1 61182U 24167A 26256.47753696 .00000007 00000+0 00000+0 0 9991 2 61182 55.1653 218.8924 0005594 236.1429 278.3979 1.70473669 12381 GSAT0226 (GALILEO 31) 1 61183U 24167B 26256.36146807 .00000007 00000+0 00000+0 0 9990 2 61183 55.1644 218.9027 0002468 248.0541 286.5834 1.70473653 12352 GSAT0233 (GALILEO 33) 1 67160U 25302A 26256.50291704 .00000004 00000+0 00000+0 0 9993 2 67160 54.3923 99.6131 0002896 139.5314 218.5518 1.70474268 4629 GSAT0234 (GALILEO 34) 1 67162U 25302C 26255.62813880 .00000007 00000+0 00000+0 0 9995 2 67162 54.3938 99.6372 0000472 38.8796 322.4283 1.70474189 4678